owner,sensor,date,latitude,longitude,vertical_datum,sea_water_practical_salinity,qcFlag 
LUMCON,ioos:station:LUMCON:wisl1:1,2019-03-01T00:30:00Z,29.1144,-90.1840,2.569,23.37,1111122 
LUMCON,ioos:station:LUMCON:wisl1:1,2019-03-01T00:45:00Z,29.1144,-90.1840,2.571,23.57,1111122 
LUMCON,ioos:station:LUMCON:wisl1:1,2019-03-01T01:00:00Z,29.1144,-90.1840,2.563,23.6,1111122 
LUMCON,ioos:station:LUMCON:wisl1:1,2019-03-01T01:15:00Z,29.1144,-90.1840,2.564,23.65,1111122 
LUMCON,ioos:station:LUMCON:wisl1:1,2019-03-01T01:30:00Z,29.1144,-90.1840,2.553,23.68,1111122 
LUMCON,ioos:station:LUMCON:wisl1:1,2019-03-01T01:45:00Z,29.1144,-90.1840,2.559,23.73,1111122 
LUMCON,ioos:station:LUMCON:wisl1:1,2019-03-01T02:00:00Z,29.1144,-90.1840,2.55,23.73,1111122 
LUMCON,ioos:station:LUMCON:wisl1:1,2019-03-01T02:15:00Z,29.1144,-90.1840,2.537,23.61,1111122 
LUMCON,ioos:station:LUMCON:wisl1:1,2019-03-01T02:30:00Z,29.1144,-90.1840,2.539,23.54,1111122 
LUMCON,ioos:station:LUMCON:wisl1:1,2019-03-01T02:45:00Z,29.1144,-90.1840,2.525,23.52,1111122 
LUMCON,ioos:station:LUMCON:wisl1:1,2019-03-01T03:00:00Z,29.1144,-90.1840,2.508,23.35,1111122 
LUMCON,ioos:station:LUMCON:wisl1:1,2019-03-01T03:15:00Z,29.1144,-90.1840,2.501,23.2,1111122 
LUMCON,ioos:station:LUMCON:wisl1:1,2019-03-01T03:30:00Z,29.1144,-90.1840,2.495,22.92,1111122 
LUMCON,ioos:station:LUMCON:wisl1:1,2019-03-01T03:45:00Z,29.1144,-90.1840,2.476,22.59,1111122 
LUMCON,ioos:station:LUMCON:wisl1:1,2019-03-01T04:00:00Z,29.1144,-90.1840,2.467,22.5,1111122 
LUMCON,ioos:station:LUMCON:wisl1:1,2019-03-01T04:15:00Z,29.1144,-90.1840,2.457,22.5,1111122 
LUMCON,ioos:station:LUMCON:wisl1:1,2019-03-01T04:30:00Z,29.1144,-90.1840,2.454,22.23,1111122 
LUMCON,ioos:station:LUMCON:wisl1:1,2019-03-01T04:45:00Z,29.1144,-90.1840,2.44,22.13,1111122 
LUMCON,ioos:station:LUMCON:wisl1:1,2019-03-01T05:00:00Z,29.1144,-90.1840,2.421,21.99,1111122 
LUMCON,ioos:station:LUMCON:wisl1:1,2019-03-01T05:15:00Z,29.1144,-90.1840,2.401,21.77,1111122 
LUMCON,ioos:station:LUMCON:wisl1:1,2019-03-01T05:30:00Z,29.1144,-90.1840,2.394,21.51,1111122 
LUMCON,ioos:station:LUMCON:wisl1:1,2019-03-01T05:45:00Z,29.1144,-90.1840,2.369,21.54,1111122 
LUMCON,ioos:station:LUMCON:wisl1:1,2019-03-01T06:00:00Z,29.1144,-90.1840,2.354,21.38,1111122 
LUMCON,ioos:station:LUMCON:wisl1:1,2019-03-01T06:15:00Z,29.1144,-90.1840,2.33,21.21,1111122 
LUMCON,ioos:station:LUMCON:wisl1:1,2019-03-01T06:30:00Z,29.1144,-90.1840,2.311,21.06,1111122 
LUMCON,ioos:station:LUMCON:wisl1:1,2019-03-01T06:45:00Z,29.1144,-90.1840,2.292,20.92,1111122 
LUMCON,ioos:station:LUMCON:wisl1:1,2019-03-01T07:00:00Z,29.1144,-90.1840,2.277,20.86,1111122 
LUMCON,ioos:station:LUMCON:wisl1:1,2019-03-01T07:15:00Z,29.1144,-90.1840,2.271,20.77,1111122 
LUMCON,ioos:station:LUMCON:wisl1:1,2019-03-01T07:30:00Z,29.1144,-90.1840,2.273,20.72,1111122 
LUMCON,ioos:station:LUMCON:wisl1:1,2019-03-01T07:45:00Z,29.1144,-90.1840,2.278,20.64,1111122 
LUMCON,ioos:station:LUMCON:wisl1:1,2019-03-01T08:00:00Z,29.1144,-90.1840,2.261,20.58,1111122 
LUMCON,ioos:station:LUMCON:wisl1:1,2019-03-01T08:15:00Z,29.1144,-90.1840,2.249,20.48,1111122 
LUMCON,ioos:station:LUMCON:wisl1:1,2019-03-01T08:30:00Z,29.1144,-90.1840,2.23,20.38,1111122 
LUMCON,ioos:station:LUMCON:wisl1:1,2019-03-01T08:45:00Z,29.1144,-90.1840,2.222,20.32,1111122 
LUMCON,ioos:station:LUMCON:wisl1:1,2019-03-01T09:00:00Z,29.1144,-90.1840,2.254,20.27,1111122 
LUMCON,ioos:station:LUMCON:wisl1:1,2019-03-01T09:15:00Z,29.1144,-90.1840,2.204,20.22,1111122 
LUMCON,ioos:station:LUMCON:wisl1:1,2019-03-01T09:30:00Z,29.1144,-90.1840,2.226,20.16,1111122 
LUMCON,ioos:station:LUMCON:wisl1:1,2019-03-01T09:45:00Z,29.1144,-90.1840,2.22,20.05,1111122 
LUMCON,ioos:station:LUMCON:wisl1:1,2019-03-01T10:00:00Z,29.1144,-90.1840,2.212,19.9,1111122 
LUMCON,ioos:station:LUMCON:wisl1:1,2019-03-01T10:15:00Z,29.1144,-90.1840,2.18,19.85,1111122 
LUMCON,ioos:station:LUMCON:wisl1:1,2019-03-01T10:30:00Z,29.1144,-90.1840,2.217,19.76,1111122 
LUMCON,ioos:station:LUMCON:wisl1:1,2019-03-01T10:45:00Z,29.1144,-90.1840,2.188,19.67,1111122 
LUMCON,ioos:station:LUMCON:wisl1:1,2019-03-01T11:00:00Z,29.1144,-90.1840,2.198,19.63,1111122 
LUMCON,ioos:station:LUMCON:wisl1:1,2019-03-01T11:15:00Z,29.1144,-90.1840,2.201,19.58,1111122 
LUMCON,ioos:station:LUMCON:wisl1:1,2019-03-01T11:30:00Z,29.1144,-90.1840,2.219,19.54,1111122 
LUMCON,ioos:station:LUMCON:wisl1:1,2019-03-01T11:45:00Z,29.1144,-90.1840,2.184,19.49,1111122 
LUMCON,ioos:station:LUMCON:wisl1:1,2019-03-01T12:00:00Z,29.1144,-90.1840,2.22,19.45,1111122 
LUMCON,ioos:station:LUMCON:wisl1:1,2019-03-01T12:15:00Z,29.1144,-90.1840,2.235,19.41,1111122 
LUMCON,ioos:station:LUMCON:wisl1:1,2019-03-04T17:30:00Z,29.1144,-90.1840,2.43,19.46,1111122 
LUMCON,ioos:station:LUMCON:wisl1:1,2019-03-04T17:45:00Z,29.1144,-90.1840,2.44,19.49,1111122 
LUMCON,ioos:station:LUMCON:wisl1:1,2019-03-04T18:00:00Z,29.1144,-90.1840,2.452,19.5,1111122 
LUMCON,ioos:station:LUMCON:wisl1:1,2019-03-04T18:15:00Z,29.1144,-90.1840,2.451,19.51,1111122 
LUMCON,ioos:station:LUMCON:wisl1:1,2019-03-04T18:30:00Z,29.1144,-90.1840,2.449,19.54,1111122 
LUMCON,ioos:station:LUMCON:wisl1:1,2019-03-04T18:45:00Z,29.1144,-90.1840,2.456,19.56,1111122 
LUMCON,ioos:station:LUMCON:wisl1:1,2019-03-04T19:00:00Z,29.1144,-90.1840,2.451,19.72,1111122 
LUMCON,ioos:station:LUMCON:wisl1:1,2019-03-04T19:15:00Z,29.1144,-90.1840,2.468,19.89,1111122 
LUMCON,ioos:station:LUMCON:wisl1:1,2019-03-04T19:30:00Z,29.1144,-90.1840,2.462,20.05,1111122 
LUMCON,ioos:station:LUMCON:wisl1:1,2019-03-04T19:45:00Z,29.1144,-90.1840,2.46,20.34,1111122 
LUMCON,ioos:station:LUMCON:wisl1:1,2019-03-04T20:00:00Z,29.1144,-90.1840,2.454,20.58,1111122 
LUMCON,ioos:station:LUMCON:wisl1:1,2019-03-04T20:15:00Z,29.1144,-90.1840,2.468,20.88,1111122 
LUMCON,ioos:station:LUMCON:wisl1:1,2019-03-04T20:30:00Z,29.1144,-90.1840,2.462,21.26,1111122 
LUMCON,ioos:station:LUMCON:wisl1:1,2019-03-04T20:45:00Z,29.1144,-90.1840,2.456,21.57,1111122 
LUMCON,ioos:station:LUMCON:wisl1:1,2019-03-04T21:00:00Z,29.1144,-90.1840,2.469,21.69,1111122 
LUMCON,ioos:station:LUMCON:wisl1:1,2019-03-04T21:15:00Z,29.1144,-90.1840,2.475,21.93,1111122 
LUMCON,ioos:station:LUMCON:wisl1:1,2019-03-04T21:30:00Z,29.1144,-90.1840,2.497,22.19,1111122 
LUMCON,ioos:station:LUMCON:wisl1:1,2019-03-04T21:45:00Z,29.1144,-90.1840,2.494,22.73,1111122 
LUMCON,ioos:station:LUMCON:wisl1:1,2019-03-04T22:00:00Z,29.1144,-90.1840,2.496,22.86,1111122 
LUMCON,ioos:station:LUMCON:wisl1:1,2019-03-04T22:15:00Z,29.1144,-90.1840,2.518,23.0,1111122 
LUMCON,ioos:station:LUMCON:wisl1:1,2019-03-04T22:30:00Z,29.1144,-90.1840,2.519,23.22,1111122 
LUMCON,ioos:station:LUMCON:wisl1:1,2019-03-04T22:45:00Z,29.1144,-90.1840,2.53,23.32,1111122 
LUMCON,ioos:station:LUMCON:wisl1:1,2019-03-04T23:00:00Z,29.1144,-90.1840,2.544,23.36,1111122 
LUMCON,ioos:station:LUMCON:wisl1:1,2019-03-04T23:15:00Z,29.1144,-90.1840,2.55,23.5,1111122 
LUMCON,ioos:station:LUMCON:wisl1:1,2019-03-04T23:30:00Z,29.1144,-90.1840,2.554,23.48,1111122 
LUMCON,ioos:station:LUMCON:wisl1:1,2019-03-04T23:45:00Z,29.1144,-90.1840,2.558,23.52,1111122 
LUMCON,ioos:station:LUMCON:wisl1:1,2019-03-05T00:00:00Z,29.1144,-90.1840,2.573,23.36,1111122 
LUMCON,ioos:station:LUMCON:wisl1:1,2019-03-05T00:15:00Z,29.1144,-90.1840,2.578,23.32,1111122 
LUMCON,ioos:station:LUMCON:wisl1:1,2019-03-05T00:30:00Z,29.1144,-90.1840,2.577,23.19,1111122 
LUMCON,ioos:station:LUMCON:wisl1:1,2019-03-05T00:45:00Z,29.1144,-90.1840,2.604,23.09,1111122 
LUMCON,ioos:station:LUMCON:wisl1:1,2019-03-05T01:00:00Z,29.1144,-90.1840,2.595,22.96,1111122 
LUMCON,ioos:station:LUMCON:wisl1:1,2019-03-05T01:15:00Z,29.1144,-90.1840,2.598,22.93,1111122 
LUMCON,ioos:station:LUMCON:wisl1:1,2019-03-05T01:30:00Z,29.1144,-90.1840,2.604,22.85,1111122 
LUMCON,ioos:station:LUMCON:wisl1:1,2019-03-05T01:45:00Z,29.1144,-90.1840,2.608,22.78,1111122 
LUMCON,ioos:station:LUMCON:wisl1:1,2019-03-05T02:00:00Z,29.1144,-90.1840,2.61,22.73,1111122 
LUMCON,ioos:station:LUMCON:wisl1:1,2019-03-05T02:15:00Z,29.1144,-90.1840,2.619,22.65,1111122 
LUMCON,ioos:station:LUMCON:wisl1:1,2019-03-05T02:30:00Z,29.1144,-90.1840,2.611,22.64,1111122 
LUMCON,ioos:station:LUMCON:wisl1:1,2019-03-05T02:45:00Z,29.1144,-90.1840,2.612,22.58,1111122 
LUMCON,ioos:station:LUMCON:wisl1:1,2019-03-05T03:00:00Z,29.1144,-90.1840,2.627,22.55,1111122 
LUMCON,ioos:station:LUMCON:wisl1:1,2019-03-05T03:15:00Z,29.1144,-90.1840,2.637,22.55,1111122 
LUMCON,ioos:station:LUMCON:wisl1:1,2019-03-05T03:30:00Z,29.1144,-90.1840,2.649,22.58,1111122 
LUMCON,ioos:station:LUMCON:wisl1:1,2019-03-05T03:45:00Z,29.1144,-90.1840,2.638,22.54,1111122 
LUMCON,ioos:station:LUMCON:wisl1:1,2019-03-05T04:00:00Z,29.1144,-90.1840,2.637,22.54,1111122 
LUMCON,ioos:station:LUMCON:wisl1:1,2019-03-05T04:15:00Z,29.1144,-90.1840,2.642,22.53,1111122 
LUMCON,ioos:station:LUMCON:wisl1:1,2019-03-05T04:30:00Z,29.1144,-90.1840,2.65,22.52,1111122 
LUMCON,ioos:station:LUMCON:wisl1:1,2019-03-05T04:45:00Z,29.1144,-90.1840,2.624,22.48,1111122 
LUMCON,ioos:station:LUMCON:wisl1:1,2019-03-05T05:00:00Z,29.1144,-90.1840,2.614,22.46,1111122 
LUMCON,ioos:station:LUMCON:wisl1:1,2019-03-05T05:15:00Z,29.1144,-90.1840,2.605,22.51,1111122 
LUMCON,ioos:station:LUMCON:wisl1:1,2019-03-05T05:30:00Z,29.1144,-90.1840,2.61,22.54,1111122 
LUMCON,ioos:station:LUMCON:wisl1:1,2019-03-05T05:45:00Z,29.1144,-90.1840,2.602,22.6,1111122 
LUMCON,ioos:station:LUMCON:wisl1:1,2019-03-05T06:00:00Z,29.1144,-90.1840,2.6,22.57,1111122 
LUMCON,ioos:station:LUMCON:wisl1:1,2019-03-05T06:15:00Z,29.1144,-90.1840,2.586,22.42,1111122 
LUMCON,ioos:station:LUMCON:wisl1:1,2019-03-05T06:30:00Z,29.1144,-90.1840,2.594,22.38,1111122 
LUMCON,ioos:station:LUMCON:wisl1:1,2019-03-05T06:45:00Z,29.1144,-90.1840,2.591,22.25,1111122 
LUMCON,ioos:station:LUMCON:wisl1:1,2019-03-05T07:00:00Z,29.1144,-90.1840,2.558,22.36,1111122 
LUMCON,ioos:station:LUMCON:wisl1:1,2019-03-05T07:15:00Z,29.1144,-90.1840,2.549,22.35,1111122 
LUMCON,ioos:station:LUMCON:wisl1:1,2019-03-05T07:30:00Z,29.1144,-90.1840,2.542,22.17,1111122 
LUMCON,ioos:station:LUMCON:wisl1:1,2019-03-05T07:45:00Z,29.1144,-90.1840,2.541,21.98,1111122 
LUMCON,ioos:station:LUMCON:wisl1:1,2019-03-05T08:00:00Z,29.1144,-90.1840,2.54,21.66,1111122 
LUMCON,ioos:station:LUMCON:wisl1:1,2019-03-05T08:15:00Z,29.1144,-90.1840,2.532,21.77,1111122 
LUMCON,ioos:station:LUMCON:wisl1:1,2019-03-05T08:30:00Z,29.1144,-90.1840,2.528,21.75,1111122 
LUMCON,ioos:station:LUMCON:wisl1:1,2019-03-05T08:45:00Z,29.1144,-90.1840,2.522,21.49,1111122 
LUMCON,ioos:station:LUMCON:wisl1:1,2019-03-05T09:00:00Z,29.1144,-90.1840,2.502,21.53,1111122 
LUMCON,ioos:station:LUMCON:wisl1:1,2019-03-05T09:15:00Z,29.1144,-90.1840,2.501,21.44,1111122 
LUMCON,ioos:station:LUMCON:wisl1:1,2019-03-05T09:30:00Z,29.1144,-90.1840,2.49,21.38,1111122 
LUMCON,ioos:station:LUMCON:wisl1:1,2019-03-05T09:45:00Z,29.1144,-90.1840,2.479,21.33,1111122 
LUMCON,ioos:station:LUMCON:wisl1:1,2019-03-05T10:00:00Z,29.1144,-90.1840,2.472,21.34,1111122 
LUMCON,ioos:station:LUMCON:wisl1:1,2019-03-05T10:15:00Z,29.1144,-90.1840,2.474,21.27,1111122 
LUMCON,ioos:station:LUMCON:wisl1:1,2019-03-05T10:30:00Z,29.1144,-90.1840,2.464,21.31,1111122 
LUMCON,ioos:station:LUMCON:wisl1:1,2019-03-05T10:45:00Z,29.1144,-90.1840,2.459,21.18,1111122 
LUMCON,ioos:station:LUMCON:wisl1:1,2019-03-05T11:00:00Z,29.1144,-90.1840,2.457,20.97,1111122 
LUMCON,ioos:station:LUMCON:wisl1:1,2019-03-05T11:15:00Z,29.1144,-90.1840,2.442,20.58,1111122 
LUMCON,ioos:station:LUMCON:wisl1:1,2019-03-05T11:30:00Z,29.1144,-90.1840,2.458,20.8,1111122 
LUMCON,ioos:station:LUMCON:wisl1:1,2019-03-05T11:45:00Z,29.1144,-90.1840,2.449,20.28,1111122 
LUMCON,ioos:station:LUMCON:wisl1:1,2019-03-05T12:00:00Z,29.1144,-90.1840,2.456,20.27,1111122 
LUMCON,ioos:station:LUMCON:wisl1:1,2019-03-05T12:15:00Z,29.1144,-90.1840,2.446,20.13,1111122 
LUMCON,ioos:station:LUMCON:wisl1:1,2019-03-05T12:30:00Z,29.1144,-90.1840,2.436,20.05,1111122 
LUMCON,ioos:station:LUMCON:wisl1:1,2019-03-05T12:45:00Z,29.1144,-90.1840,2.443,19.89,1111122 
LUMCON,ioos:station:LUMCON:wisl1:1,2019-03-05T13:00:00Z,29.1144,-90.1840,2.458,19.76,1111122 
LUMCON,ioos:station:LUMCON:wisl1:1,2019-03-05T13:15:00Z,29.1144,-90.1840,2.468,19.54,1111122 
LUMCON,ioos:station:LUMCON:wisl1:1,2019-03-05T13:30:00Z,29.1144,-90.1840,2.485,19.48,1111122 
LUMCON,ioos:station:LUMCON:wisl1:1,2019-03-05T13:45:00Z,29.1144,-90.1840,2.493,19.46,1111122 
LUMCON,ioos:station:LUMCON:wisl1:1,2019-03-05T14:00:00Z,29.1144,-90.1840,2.499,19.28,1111122 
LUMCON,ioos:station:LUMCON:wisl1:1,2019-03-05T14:15:00Z,29.1144,-90.1840,2.511,19.23,1111122 
LUMCON,ioos:station:LUMCON:wisl1:1,2019-03-05T14:30:00Z,29.1144,-90.1840,2.498,19.21,1111122 
LUMCON,ioos:station:LUMCON:wisl1:1,2019-03-05T14:45:00Z,29.1144,-90.1840,2.523,19.05,1111122 
LUMCON,ioos:station:LUMCON:wisl1:1,2019-03-05T15:00:00Z,29.1144,-90.1840,2.527,19.08,1111122 
LUMCON,ioos:station:LUMCON:wisl1:1,2019-03-05T15:15:00Z,29.1144,-90.1840,2.516,19.03,1111122 
LUMCON,ioos:station:LUMCON:wisl1:1,2019-03-05T15:30:00Z,29.1144,-90.1840,2.535,18.92,1111122 
LUMCON,ioos:station:LUMCON:wisl1:1,2019-03-05T15:45:00Z,29.1144,-90.1840,2.537,18.79,1111122 
LUMCON,ioos:station:LUMCON:wisl1:1,2019-03-05T16:00:00Z,29.1144,-90.1840,2.536,18.91,1111122 
LUMCON,ioos:station:LUMCON:wisl1:1,2019-03-05T16:15:00Z,29.1144,-90.1840,2.548,19.15,1111122 
LUMCON,ioos:station:LUMCON:wisl1:1,2019-03-05T16:30:00Z,29.1144,-90.1840,2.542,18.73,1111122 
LUMCON,ioos:station:LUMCON:wisl1:1,2019-03-05T16:45:00Z,29.1144,-90.1840,2.552,18.87,1111122 
LUMCON,ioos:station:LUMCON:wisl1:1,2019-03-05T17:00:00Z,29.1144,-90.1840,2.555,18.74,1111122 
LUMCON,ioos:station:LUMCON:wisl1:1,2019-03-05T17:15:00Z,29.1144,-90.1840,2.577,18.74,1111122 
LUMCON,ioos:station:LUMCON:wisl1:1,2019-03-05T17:30:00Z,29.1144,-90.1840,2.569,18.88,1111122 
LUMCON,ioos:station:LUMCON:wisl1:1,2019-03-05T17:45:00Z,29.1144,-90.1840,2.587,19.0,1111122 
LUMCON,ioos:station:LUMCON:wisl1:1,2019-03-05T18:00:00Z,29.1144,-90.1840,2.585,19.02,1111122 
LUMCON,ioos:station:LUMCON:wisl1:1,2019-03-05T18:15:00Z,29.1144,-90.1840,2.585,19.08,1111122 
LUMCON,ioos:station:LUMCON:wisl1:1,2019-03-05T18:30:00Z,29.1144,-90.1840,2.586,19.18,1111122 
LUMCON,ioos:station:LUMCON:wisl1:1,2019-03-05T18:45:00Z,29.1144,-90.1840,2.598,19.44,1111122 
LUMCON,ioos:station:LUMCON:wisl1:1,2019-03-05T19:00:00Z,29.1144,-90.1840,2.603,19.53,1111122 
LUMCON,ioos:station:LUMCON:wisl1:1,2019-03-05T19:15:00Z,29.1144,-90.1840,2.608,19.85,1111122 
LUMCON,ioos:station:LUMCON:wisl1:1,2019-03-05T19:30:00Z,29.1144,-90.1840,2.613,19.82,1111122 
LUMCON,ioos:station:LUMCON:wisl1:1,2019-03-05T19:45:00Z,29.1144,-90.1840,2.625,19.92,1111122 
LUMCON,ioos:station:LUMCON:wisl1:1,2019-03-05T20:00:00Z,29.1144,-90.1840,2.623,20.29,1111122 
LUMCON,ioos:station:LUMCON:wisl1:1,2019-03-05T20:15:00Z,29.1144,-90.1840,2.624,20.69,1111122 
LUMCON,ioos:station:LUMCON:wisl1:1,2019-03-05T20:30:00Z,29.1144,-90.1840,2.611,20.8,1111122 
LUMCON,ioos:station:LUMCON:wisl1:1,2019-03-05T20:45:00Z,29.1144,-90.1840,2.611,21.03,1111122 
LUMCON,ioos:station:LUMCON:wisl1:1,2019-03-05T21:00:00Z,29.1144,-90.1840,2.606,21.13,1111122 
LUMCON,ioos:station:LUMCON:wisl1:1,2019-03-05T21:15:00Z,29.1144,-90.1840,2.598,21.31,1111122 
LUMCON,ioos:station:LUMCON:wisl1:1,2019-03-05T21:30:00Z,29.1144,-90.1840,2.596,21.28,1111122 
LUMCON,ioos:station:LUMCON:wisl1:1,2019-03-05T21:45:00Z,29.1144,-90.1840,2.594,21.34,1111122 
LUMCON,ioos:station:LUMCON:wisl1:1,2019-03-05T22:00:00Z,29.1144,-90.1840,2.583,21.6,1111122 
LUMCON,ioos:station:LUMCON:wisl1:1,2019-03-05T22:15:00Z,29.1144,-90.1840,2.592,21.28,1111122 
LUMCON,ioos:station:LUMCON:wisl1:1,2019-03-05T22:30:00Z,29.1144,-90.1840,2.588,21.55,1111122 
LUMCON,ioos:station:LUMCON:wisl1:1,2019-03-05T22:45:00Z,29.1144,-90.1840,2.574,21.84,1111122 
LUMCON,ioos:station:LUMCON:wisl1:1,2019-03-05T23:00:00Z,29.1144,-90.1840,2.578,21.22,1111122 
LUMCON,ioos:station:LUMCON:wisl1:1,2019-03-05T23:15:00Z,29.1144,-90.1840,2.588,21.04,1111122 
LUMCON,ioos:station:LUMCON:wisl1:1,2019-03-05T23:30:00Z,29.1144,-90.1840,2.599,21.32,1111122 
LUMCON,ioos:station:LUMCON:wisl1:1,2019-03-05T23:45:00Z,29.1144,-90.1840,2.591,21.77,1111122 
LUMCON,ioos:station:LUMCON:wisl1:1,2019-03-06T00:00:00Z,29.1144,-90.1840,2.585,21.63,1111122 
LUMCON,ioos:station:LUMCON:wisl1:1,2019-03-06T00:15:00Z,29.1144,-90.1840,2.602,21.56,1111122 
LUMCON,ioos:station:LUMCON:wisl1:1,2019-03-06T00:30:00Z,29.1144,-90.1840,2.61,21.78,1111122 
LUMCON,ioos:station:LUMCON:wisl1:1,2019-03-06T00:45:00Z,29.1144,-90.1840,2.607,22.07,1111122 
LUMCON,ioos:station:LUMCON:wisl1:1,2019-03-06T01:00:00Z,29.1144,-90.1840,2.615,22.05,1111122 
LUMCON,ioos:station:LUMCON:wisl1:1,2019-03-06T01:15:00Z,29.1144,-90.1840,2.612,22.08,1111122 
LUMCON,ioos:station:LUMCON:wisl1:1,2019-03-06T01:30:00Z,29.1144,-90.1840,2.614,21.93,1111122 
LUMCON,ioos:station:LUMCON:wisl1:1,2019-03-06T01:45:00Z,29.1144,-90.1840,2.626,21.48,1111122 
LUMCON,ioos:station:LUMCON:wisl1:1,2019-03-06T02:00:00Z,29.1144,-90.1840,2.644,21.48,1111122 
LUMCON,ioos:station:LUMCON:wisl1:1,2019-03-06T02:15:00Z,29.1144,-90.1840,2.641,21.55,1111122 
LUMCON,ioos:station:LUMCON:wisl1:1,2019-03-06T02:30:00Z,29.1144,-90.1840,2.64,21.75,1111122 
LUMCON,ioos:station:LUMCON:wisl1:1,2019-03-06T02:45:00Z,29.1144,-90.1840,2.65,21.13,1111122 
LUMCON,ioos:station:LUMCON:wisl1:1,2019-03-06T03:00:00Z,29.1144,-90.1840,2.658,21.19,1111122 
LUMCON,ioos:station:LUMCON:wisl1:1,2019-03-06T03:15:00Z,29.1144,-90.1840,2.667,21.61,1111122 
LUMCON,ioos:station:LUMCON:wisl1:1,2019-03-06T03:30:00Z,29.1144,-90.1840,2.671,21.35,1111122 
LUMCON,ioos:station:LUMCON:wisl1:1,2019-03-06T03:45:00Z,29.1144,-90.1840,2.664,21.81,1111122 
LUMCON,ioos:station:LUMCON:wisl1:1,2019-03-06T04:00:00Z,29.1144,-90.1840,2.666,21.82,1111122 
LUMCON,ioos:station:LUMCON:wisl1:1,2019-03-06T04:15:00Z,29.1144,-90.1840,2.682,21.24,1111122 
LUMCON,ioos:station:LUMCON:wisl1:1,2019-03-06T04:30:00Z,29.1144,-90.1840,2.696,21.08,1111122 
LUMCON,ioos:station:LUMCON:wisl1:1,2019-03-06T04:45:00Z,29.1144,-90.1840,2.705,20.92,1111122 
LUMCON,ioos:station:LUMCON:wisl1:1,2019-03-06T05:00:00Z,29.1144,-90.1840,2.701,21.14,1111122 
LUMCON,ioos:station:LUMCON:wisl1:1,2019-03-06T05:15:00Z,29.1144,-90.1840,2.7,21.25,1111122 
LUMCON,ioos:station:LUMCON:wisl1:1,2019-03-06T05:30:00Z,29.1144,-90.1840,2.7,21.49,1111122 
LUMCON,ioos:station:LUMCON:wisl1:1,2019-03-06T05:45:00Z,29.1144,-90.1840,2.686,21.44,1111122 
LUMCON,ioos:station:LUMCON:wisl1:1,2019-03-06T06:00:00Z,29.1144,-90.1840,2.681,21.11,1111122 
LUMCON,ioos:station:LUMCON:wisl1:1,2019-03-06T06:15:00Z,29.1144,-90.1840,2.675,21.51,1111122 
LUMCON,ioos:station:LUMCON:wisl1:1,2019-03-06T06:30:00Z,29.1144,-90.1840,2.658,21.53,1111122 
LUMCON,ioos:station:LUMCON:wisl1:1,2019-03-06T06:45:00Z,29.1144,-90.1840,2.653,21.57,1111122 
LUMCON,ioos:station:LUMCON:wisl1:1,2019-03-06T07:00:00Z,29.1144,-90.1840,2.635,21.54,1111122 
LUMCON,ioos:station:LUMCON:wisl1:1,2019-03-06T07:15:00Z,29.1144,-90.1840,2.66,21.51,1111122 
LUMCON,ioos:station:LUMCON:wisl1:1,2019-03-06T07:30:00Z,29.1144,-90.1840,2.651,21.26,1111122 
LUMCON,ioos:station:LUMCON:wisl1:1,2019-03-06T07:45:00Z,29.1144,-90.1840,2.631,21.65,1111122 
LUMCON,ioos:station:LUMCON:wisl1:1,2019-03-06T08:00:00Z,29.1144,-90.1840,2.608,21.64,1111122 
LUMCON,ioos:station:LUMCON:wisl1:1,2019-03-06T08:15:00Z,29.1144,-90.1840,2.597,21.47,1111122 
LUMCON,ioos:station:LUMCON:wisl1:1,2019-03-06T08:30:00Z,29.1144,-90.1840,2.599,21.21,1111122 
LUMCON,ioos:station:LUMCON:wisl1:1,2019-03-06T08:45:00Z,29.1144,-90.1840,2.59,21.09,1111122 
LUMCON,ioos:station:LUMCON:wisl1:1,2019-03-06T09:00:00Z,29.1144,-90.1840,2.584,21.07,1111122 
LUMCON,ioos:station:LUMCON:wisl1:1,2019-03-06T09:15:00Z,29.1144,-90.1840,2.568,21.02,1111122 
LUMCON,ioos:station:LUMCON:wisl1:1,2019-03-06T09:30:00Z,29.1144,-90.1840,2.564,20.92,1111122 
LUMCON,ioos:station:LUMCON:wisl1:1,2019-03-06T09:45:00Z,29.1144,-90.1840,2.566,20.87,1111122 
LUMCON,ioos:station:LUMCON:wisl1:1,2019-03-06T10:00:00Z,29.1144,-90.1840,2.565,20.81,1111122 
LUMCON,ioos:station:LUMCON:wisl1:1,2019-03-06T10:15:00Z,29.1144,-90.1840,2.564,20.84,1111122 
LUMCON,ioos:station:LUMCON:wisl1:1,2019-03-06T10:30:00Z,29.1144,-90.1840,2.558,20.77,1111122 
LUMCON,ioos:station:LUMCON:wisl1:1,2019-03-06T10:45:00Z,29.1144,-90.1840,2.549,20.72,1111122 
LUMCON,ioos:station:LUMCON:wisl1:1,2019-03-06T11:00:00Z,29.1144,-90.1840,2.545,20.58,1111122 
LUMCON,ioos:station:LUMCON:wisl1:1,2019-03-06T11:15:00Z,29.1144,-90.1840,2.551,20.45,1111122 
LUMCON,ioos:station:LUMCON:wisl1:1,2019-03-06T11:30:00Z,29.1144,-90.1840,2.541,20.25,1111122 
LUMCON,ioos:station:LUMCON:wisl1:1,2019-03-06T11:45:00Z,29.1144,-90.1840,2.55,20.28,1111122 
LUMCON,ioos:station:LUMCON:wisl1:1,2019-03-06T12:00:00Z,29.1144,-90.1840,2.553,20.02,1111122 
LUMCON,ioos:station:LUMCON:wisl1:1,2019-03-06T12:15:00Z,29.1144,-90.1840,2.549,20.07,1111122 
LUMCON,ioos:station:LUMCON:wisl1:1,2019-03-06T12:30:00Z,29.1144,-90.1840,2.561,19.85,1111122 
LUMCON,ioos:station:LUMCON:wisl1:1,2019-03-06T12:45:00Z,29.1144,-90.1840,2.572,19.61,1111122 
LUMCON,ioos:station:LUMCON:wisl1:1,2019-03-06T13:00:00Z,29.1144,-90.1840,2.566,19.69,1111122 
LUMCON,ioos:station:LUMCON:wisl1:1,2019-03-06T13:15:00Z,29.1144,-90.1840,2.57,19.49,1111122 
LUMCON,ioos:station:LUMCON:wisl1:1,2019-03-06T13:30:00Z,29.1144,-90.1840,2.577,19.49,1111122 
LUMCON,ioos:station:LUMCON:wisl1:1,2019-03-06T13:45:00Z,29.1144,-90.1840,2.575,19.46,1111122 
LUMCON,ioos:station:LUMCON:wisl1:1,2019-03-06T14:00:00Z,29.1144,-90.1840,2.58,19.45,1111122 
LUMCON,ioos:station:LUMCON:wisl1:1,2019-03-06T14:15:00Z,29.1144,-90.1840,2.583,19.28,1111122 
LUMCON,ioos:station:LUMCON:wisl1:1,2019-03-06T14:30:00Z,29.1144,-90.1840,2.591,19.08,1111122 
LUMCON,ioos:station:LUMCON:wisl1:1,2019-03-06T14:45:00Z,29.1144,-90.1840,2.6,19.03,1111122 
LUMCON,ioos:station:LUMCON:wisl1:1,2019-03-06T15:00:00Z,29.1144,-90.1840,2.604,18.99,1111122 
LUMCON,ioos:station:LUMCON:wisl1:1,2019-03-06T15:15:00Z,29.1144,-90.1840,2.61,19.0,1111122 
LUMCON,ioos:station:LUMCON:wisl1:1,2019-03-06T15:30:00Z,29.1144,-90.1840,2.622,18.99,1111122 
LUMCON,ioos:station:LUMCON:wisl1:1,2019-03-06T15:45:00Z,29.1144,-90.1840,2.628,19.02,1111122 
LUMCON,ioos:station:LUMCON:wisl1:1,2019-03-06T16:00:00Z,29.1144,-90.1840,2.632,18.91,1111122 
LUMCON,ioos:station:LUMCON:wisl1:1,2019-03-06T16:15:00Z,29.1144,-90.1840,2.628,19.82,1111122 
LUMCON,ioos:station:LUMCON:wisl1:1,2019-03-06T16:30:00Z,29.1144,-90.1840,2.626,19.01,1111122 
LUMCON,ioos:station:LUMCON:wisl1:1,2019-03-06T16:45:00Z,29.1144,-90.1840,2.644,18.93,1111122 
LUMCON,ioos:station:LUMCON:wisl1:1,2019-03-06T17:00:00Z,29.1144,-90.1840,2.641,18.94,1111122 
LUMCON,ioos:station:LUMCON:wisl1:1,2019-03-06T17:15:00Z,29.1144,-90.1840,2.651,18.98,1111122 
LUMCON,ioos:station:LUMCON:wisl1:1,2019-03-06T17:30:00Z,29.1144,-90.1840,2.655,19.02,1111122 
LUMCON,ioos:station:LUMCON:wisl1:1,2019-03-06T17:45:00Z,29.1144,-90.1840,2.632,19.24,1111122 
LUMCON,ioos:station:LUMCON:wisl1:1,2019-03-06T18:00:00Z,29.1144,-90.1840,2.645,19.24,1111122 
LUMCON,ioos:station:LUMCON:wisl1:1,2019-03-06T18:15:00Z,29.1144,-90.1840,2.654,19.2,1111122 
LUMCON,ioos:station:LUMCON:wisl1:1,2019-03-06T18:30:00Z,29.1144,-90.1840,2.657,19.26,1111122 
LUMCON,ioos:station:LUMCON:wisl1:1,2019-03-06T18:45:00Z,29.1144,-90.1840,2.668,19.34,1111122 
LUMCON,ioos:station:LUMCON:wisl1:1,2019-03-06T19:00:00Z,29.1144,-90.1840,2.668,19.52,1111122 
LUMCON,ioos:station:LUMCON:wisl1:1,2019-03-06T19:15:00Z,29.1144,-90.1840,2.672,19.71,1111122 
LUMCON,ioos:station:LUMCON:wisl1:1,2019-03-06T19:30:00Z,29.1144,-90.1840,2.685,19.73,1111122 
LUMCON,ioos:station:LUMCON:wisl1:1,2019-03-06T19:45:00Z,29.1144,-90.1840,2.685,19.84,1111122 
LUMCON,ioos:station:LUMCON:wisl1:1,2019-03-06T20:00:00Z,29.1144,-90.1840,2.685,20.25,1111122 
LUMCON,ioos:station:LUMCON:wisl1:1,2019-03-06T20:15:00Z,29.1144,-90.1840,2.671,20.55,1111122 
LUMCON,ioos:station:LUMCON:wisl1:1,2019-03-06T20:30:00Z,29.1144,-90.1840,2.659,20.78,1111122 
LUMCON,ioos:station:LUMCON:wisl1:1,2019-03-06T20:45:00Z,29.1144,-90.1840,2.65,20.9,1111122 